• MPC Preparation (Info)

  • MPEC 2014-W143: 2014 WC364

    The following Minor Planet Electronic Circular may be linked-to from your own Web pages, but must not otherwise be redistributed electronically.

    A form allowing access to any MPEC is at the bottom of this page.


    Read MPEC 2014-W142 Read MPEC 2014-W144


    M.P.E.C. 2014-W143                               Issued 2014 Nov. 29, 01:56 UT
    
         The Minor Planet Electronic Circulars contain information on unusual
             minor planets and routine data on comets.  They are published
       on behalf of Commission 20 of the International Astronomical Union by the
              Minor Planet Center, Smithsonian Astrophysical Observatory,
                              Cambridge, MA 02138, U.S.A.
    
                 Prepared using the Tamkin Foundation Computer Network
    
                                  MPC@CFA.HARVARD.EDU
                URL https://www.minorplanetcenter.net/    ISSN 1523-6714
    
                                      2014 WC364
    
    Observations:
         K14Wa4C* C2014 11 27.40190 02 17 31.107+26 54 39.82         20.4 wLEW143F51
         K14Wa4C  C2014 11 27.41414 02 17 24.717+26 53 46.97         20.8 wLEW143F51
         K14Wa4C  C2014 11 27.42639 02 17 18.370+26 52 53.57         20.7 wLEW143F51
         K14Wa4C KC2014 11 28.10312902 11 49.83 +26 01 43.0          20.0 VuEW143H21
         K14Wa4C KC2014 11 28.10939002 11 46.34 +26 01 13.6          19.9 VuEW143H21
         K14Wa4C KC2014 11 28.11539102 11 43.01 +26 00 45.0          20.3 VuEW143H21
         K14Wa4C KC2014 11 29.06290 02 03 04.85 +24 37 40.5          20.0 RoEW143291
         K14Wa4C KC2014 11 29.06343 02 03 04.54 +24 37 37.8          20.1 RoEW143291
         K14Wa4C KC2014 11 29.06398 02 03 04.16 +24 37 35.0          20.0 RoEW143291
    
    Observer details:
    291 LPL/Spacewatch II.  Observer A. F. Tubbiolo.  1.8-m f/2.7 reflector + CCD.
    F51 Pan-STARRS 1, Haleakala.  Observers B. Gibson, T. Goggia, N. Primak,
        A. Schultz, M. Willman.  Measurers K. Chambers, S. Chastel, L. Denneau,
        H. Flewelling, M. Huber, E. Magnier, E. Schunova, R. Wainscoat, C. Waters,
        R. Weryk.  1.8-m Ritchey-Chretien + CCD.
    H21 Astronomical Research Observatory, Westfield.  Observers T. Linder,
        R. Holmes.  Measurers T. Linder, L. Buzzi, S. Foglia, T. Vorobjov.  0.76-m
        f/3.0 astrograph + CCD.
    
    Orbital elements:
    2014 WC364                                               Earth MOID = 0.0032 AU
    Epoch 2014 Dec. 9.0 TT = JDT 2457000.5                  MPC
    M 329.85097              (2000.0)            P               Q
    n   0.62053447     Peri.  254.63751     -0.82403456     -0.55745375
    a   1.3613155      Node   251.38374     +0.55205850     -0.75002245
    e   0.4291774      Incl.    6.12141     +0.12727315     -0.35596578
    P   1.59           H   24.8           G   0.15           U   6
    Residuals in seconds of arc
    141127 F51  0.0   0.1+    141128 H21  0.4-  0.0     141129 291  0.1-  0.2-
    141127 F51  0.2-  0.0     141128 H21  0.1-  0.0     141129 291  0.2+  0.0
    141127 F51  0.1+  0.1-    141128 H21  0.4+  0.2-    141129 291  0.3-  0.2+
    
    Ephemeris:
    2014 WC364               a,e,i = 1.36, 0.43, 6                   q = 0.7771
    Date    TT    R. A. (2000) Decl.     Delta      r     Elong.  Phase     V
    2014 10 30    03 30 23.6 +33 26 45   0.2801  1.2508   153.9    20.4    23.5
    ...
    2014 11 14    03 13 18.9 +33 09 45   0.1629  1.1476   164.9    13.0    21.9
    ...
    2014 11 22    02 49 02.2 +30 59 35   0.1082  1.0916   162.7    15.6    21.0
    ...
    2014 11 28    02 12 41.1 +26 10 25   0.07098 1.0498   151.8    26.4    20.4
    2014 11 29    02 03 35.5 +24 44 20   0.06518 1.0429   148.9    29.3    20.2
    2014 11 30    01 53 08.1 +22 59 14   0.05956 1.0359   145.5    32.7    20.1
    ...
    2014 12 06    23 59 35.6 -01 11 56   0.03316 0.9950   105.9    72.3    19.9
    ...
    2014 12 14    19 19 31.4 -41 27 56   0.04907 0.9424    30.3   148.2    26.2
    ...
    2014 12 29    17 02 44.6 -40 33 31   0.1437  0.8557    25.3   150.6    28.8
    
    A. U. Tomatic                (C) Copyright 2014 MPC           M.P.E.C. 2014-W143
    

    Read MPEC 2014-W142 Read MPEC 2014-W144


    MPEC number:

    Enter an MPEC number in one of the following forms:

    • 1997-B01 (the full form)
    • J97B01 (the packed version of the full form)
    • B01 (the abbreviated form)